When you browse on this site, cookies collect data to enhance your experience and personalize the content and advertising you see.
Visit our Privacy Policy to learn more. By continuing to use the site, you agree to this use of cookies and data.

Previsão horária em Ganja

Hoje, 15 Agosto, Sábado

Tempo Temperatura Precipitação Vento Pressão Humidade
00:00 +25°C° 0.4 mm 3 m/s 722 mmHg 67%
01:00 +24°C° 0.7 mm 3 m/s 721 mmHg 68%
02:00 +24°C° 0.7 mm 3 m/s 721 mmHg 68%
03:00 +23°C° 0.7 mm 2 m/s 721 mmHg 69%
04:00 +22°C° 0.1 mm 3 m/s 721 mmHg 68%
05:00 +22°C° 0.1 mm 4 m/s 721 mmHg 67%
06:00 +22°C° 0.1 mm 4 m/s 722 mmHg 67%
07:00 +23°C° 0 mm 4 m/s 722 mmHg 62%
08:00 +25°C° 0 mm 4 m/s 722 mmHg 57%
09:00 +25°C° 0 mm 4 m/s 722 mmHg 52%
10:00 +26°C° 0 mm 4 m/s 722 mmHg 48%
11:00 +27°C° 0 mm 4 m/s 722 mmHg 44%
12:00 +28°C° 0 mm 4 m/s 722 mmHg 40%
13:00 +29°C° 0 mm 4 m/s 722 mmHg 38%
14:00 +29°C° 0 mm 3 m/s 722 mmHg 36%
15:00 +30°C° 0 mm 3 m/s 722 mmHg 35%
16:00 +29°C° 0 mm 4 m/s 722 mmHg 40%
17:00 +28°C° 0 mm 5 m/s 722 mmHg 45%
18:00 +27°C° 0 mm 6 m/s 722 mmHg 50%
19:00 +26°C° 0 mm 6 m/s 722 mmHg 51%
20:00 +26°C° 0 mm 6 m/s 723 mmHg 53%
21:00 +24°C° 0 mm 6 m/s 723 mmHg 55%
22:00 +23°C° 0 mm 6 m/s 723 mmHg 56%
23:00 +23°C° 0 mm 5 m/s 723 mmHg 57%

Amanhã, 16 Agosto, Domingo

Tempo Temperatura Precipitação Vento Pressão Humidade
00:00 +23°C° 0 mm 5 m/s 723 mmHg 58%
01:00 +22°C° 0 mm 4 m/s 723 mmHg 61%
02:00 +21°C° 0 mm 4 m/s 723 mmHg 65%
03:00 +20°C° 0 mm 3 m/s 723 mmHg 69%
04:00 +20°C° 0 mm 3 m/s 723 mmHg 71%
05:00 +20°C° 0 mm 2 m/s 723 mmHg 73%
06:00 +20°C° 0 mm 2 m/s 723 mmHg 75%
07:00 +21°C° 0 mm 3 m/s 723 mmHg 73%
08:00 +22°C° 0 mm 4 m/s 723 mmHg 70%
09:00 +23°C° 0 mm 4 m/s 724 mmHg 68%
10:00 +23°C° 0 mm 4 m/s 723 mmHg 67%
11:00 +23°C° 0 mm 5 m/s 723 mmHg 65%
12:00 +25°C° 0 mm 5 m/s 723 mmHg 64%
13:00 +25°C° 0 mm 5 m/s 723 mmHg 61%
14:00 +26°C° 0 mm 5 m/s 722 mmHg 59%
15:00 +26°C° 0 mm 5 m/s 722 mmHg 57%
16:00 +26°C° 0 mm 4 m/s 722 mmHg 58%
17:00 +25°C° 0 mm 4 m/s 722 mmHg 59%
18:00 +25°C° 0 mm 3 m/s 722 mmHg 61%
19:00 +25°C° 0 mm 3 m/s 722 mmHg 62%
20:00 +24°C° 0 mm 3 m/s 722 mmHg 64%
21:00 +24°C° 0 mm 2 m/s 723 mmHg 66%
22:00 +23°C° 0.5 mm 2 m/s 722 mmHg 68%
23:00 +22°C° 0.5 mm 3 m/s 722 mmHg 71%

Depois de amanhã, 17 Agosto, Segunda-feira

Tempo Temperatura Precipitação Vento Pressão Humidade
00:00 +21°C° 0.5 mm 3 m/s 722 mmHg 73%
01:00 +21°C° 1 mm 2 m/s 722 mmHg 79%
02:00 +20°C° 1 mm 2 m/s 722 mmHg 84%
03:00 +19°C° 1 mm 2 m/s 722 mmHg 90%
04:00 +19°C° 0.4 mm 2 m/s 722 mmHg 89%
05:00 +19°C° 0.4 mm 2 m/s 722 mmHg 88%
06:00 +19°C° 0.4 mm 2 m/s 722 mmHg 87%
07:00 +19°C° 0.1 mm 2 m/s 723 mmHg 84%
08:00 +20°C° 0.1 mm 2 m/s 723 mmHg 80%
09:00 +20°C° 0.1 mm 3 m/s 723 mmHg 76%
10:00 +21°C° 0.1 mm 2 m/s 723 mmHg 74%
11:00 +21°C° 0.1 mm 2 m/s 723 mmHg 72%
12:00 +23°C° 0.1 mm 2 m/s 723 mmHg 69%
13:00 +23°C° 0 mm 2 m/s 723 mmHg 70%
14:00 +21°C° 0 mm 2 m/s 723 mmHg 71%
15:00 +21°C° 0 mm 3 m/s 723 mmHg 73%
16:00 +21°C° 0 mm 2 m/s 723 mmHg 75%
17:00 +20°C° 0 mm 2 m/s 724 mmHg 77%
18:00 +20°C° 0 mm 2 m/s 724 mmHg 79%
19:00 +20°C° 0 mm 2 m/s 724 mmHg 79%
20:00 +21°C° 0 mm 1 m/s 725 mmHg 79%
21:00 +21°C° 0 mm 1 m/s 725 mmHg 80%
22:00 +21°C° 0 mm 1 m/s 725 mmHg 80%
23:00 +20°C° 0 mm 1 m/s 725 mmHg 80%

18 Agosto, Terça-feira

Tempo Temperatura Precipitação Vento Pressão Humidade
00:00 +18°C° 0 mm 0 m/s 725 mmHg 81%
01:00 +18°C° 0 mm 0 m/s 725 mmHg 81%
02:00 +18°C° 0 mm 0 m/s 725 mmHg 81%
03:00 +18°C° 0 mm 0 m/s 725 mmHg 81%
04:00 +20°C° 0 mm 1 m/s 725 mmHg 81%
05:00 +20°C° 0 mm 1 m/s 725 mmHg 82%
06:00 +20°C° 0 mm 1 m/s 725 mmHg 82%
07:00 +20°C° 0 mm 1 m/s 725 mmHg 79%
08:00 +20°C° 0 mm 2 m/s 725 mmHg 76%
09:00 +21°C° 0 mm 2 m/s 725 mmHg 74%
10:00 +23°C° 0 mm 2 m/s 725 mmHg 69%
11:00 +24°C° 0 mm 2 m/s 725 mmHg 64%
12:00 +25°C° 0 mm 2 m/s 724 mmHg 60%
13:00 +25°C° 0 mm 2 m/s 724 mmHg 57%
14:00 +26°C° 0 mm 2 m/s 724 mmHg 54%
15:00 +27°C° 0 mm 2 m/s 723 mmHg 50%
16:00 +27°C° 0 mm 2 m/s 723 mmHg 51%
17:00 +27°C° 0 mm 2 m/s 723 mmHg 51%
18:00 +26°C° 0 mm 2 m/s 723 mmHg 51%
19:00 +25°C° 0 mm 2 m/s 723 mmHg 54%
20:00 +24°C° 0 mm 1 m/s 723 mmHg 57%
21:00 +23°C° 0 mm 1 m/s 723 mmHg 60%
22:00 +23°C° 0 mm 1 m/s 723 mmHg 62%
23:00 +21°C° 0 mm 2 m/s 723 mmHg 64%

19 Agosto, Quarta-feira

Tempo Temperatura Precipitação Vento Pressão Humidade
00:00 +21°C° 0 mm 2 m/s 723 mmHg 66%
01:00 +20°C° 0 mm 2 m/s 723 mmHg 69%
02:00 +20°C° 0 mm 2 m/s 722 mmHg 71%
03:00 +19°C° 0 mm 2 m/s 722 mmHg 74%
04:00 +20°C° 0 mm 1 m/s 722 mmHg 74%
05:00 +21°C° 0 mm 1 m/s 722 mmHg 74%
06:00 +21°C° 0 mm 1 m/s 722 mmHg 74%
07:00 +22°C° 0 mm 1 m/s 722 mmHg 70%
08:00 +23°C° 0 mm 2 m/s 722 mmHg 65%
09:00 +25°C° 0 mm 2 m/s 722 mmHg 61%
10:00 +26°C° 0 mm 2 m/s 722 mmHg 57%
11:00 +27°C° 0 mm 3 m/s 722 mmHg 54%
12:00 +28°C° 0 mm 3 m/s 721 mmHg 50%
13:00 +28°C° 0 mm 3 m/s 721 mmHg 49%
14:00 +29°C° 0 mm 3 m/s 721 mmHg 48%
15:00 +29°C° 0 mm 3 m/s 721 mmHg 46%
16:00 +29°C° 0 mm 2 m/s 721 mmHg 47%
17:00 +28°C° 0 mm 2 m/s 721 mmHg 49%
18:00 +28°C° 0 mm 2 m/s 721 mmHg 50%
19:00 +27°C° 0 mm 1 m/s 722 mmHg 52%
20:00 +26°C° 0 mm 1 m/s 722 mmHg 55%
21:00 +25°C° 0 mm 1 m/s 723 mmHg 58%
22:00 +25°C° 0 mm 1 m/s 723 mmHg 58%
23:00 +24°C° 0 mm 2 m/s 723 mmHg 59%

20 Agosto, Quinta-feira

Tempo Temperatura Precipitação Vento Pressão Humidade
00:00 +24°C° 0 mm 2 m/s 723 mmHg 59%
01:00 +24°C° 0 mm 2 m/s 723 mmHg 60%
02:00 +23°C° 0 mm 2 m/s 723 mmHg 61%
03:00 +23°C° 0 mm 2 m/s 723 mmHg 62%
04:00 +23°C° 0 mm 2 m/s 723 mmHg 62%
05:00 +22°C° 0 mm 1 m/s 723 mmHg 63%
06:00 +22°C° 0 mm 1 m/s 723 mmHg 63%
07:00 +24°C° 0 mm 2 m/s 723 mmHg 59%
08:00 +25°C° 0 mm 2 m/s 723 mmHg 55%
09:00 +27°C° 0 mm 2 m/s 723 mmHg 51%
10:00 +28°C° 0 mm 3 m/s 723 mmHg 47%
11:00 +29°C° 0 mm 3 m/s 723 mmHg 44%
12:00 +30°C° 0 mm 4 m/s 723 mmHg 40%
13:00 +32°C° 0 mm 4 m/s 723 mmHg 38%
14:00 +33°C° 0 mm 4 m/s 722 mmHg 37%
15:00 +33°C° 0 mm 4 m/s 722 mmHg 35%
16:00 +32°C° 0 mm 4 m/s 722 mmHg 37%
17:00 +32°C° 0 mm 4 m/s 722 mmHg 39%
18:00 +30°C° 0 mm 4 m/s 722 mmHg 41%
19:00 +29°C° 0 mm 3 m/s 722 mmHg 43%
20:00 +28°C° 0 mm 3 m/s 722 mmHg 45%
21:00 +27°C° 0 mm 3 m/s 723 mmHg 48%
22:00 +26°C° 0 mm 3 m/s 723 mmHg 49%
23:00 +25°C° 0 mm 3 m/s 722 mmHg 51%
Mostrar mais